Location: Antioch Baptist Church
(32.6696°N, 85.7327°W)
Time: 21:11:57
(UTC+00:00)

CZ-2D R/B - Pass Details

Date: 14 July 2020
Orbit: 552 x 639 km, 97.9° (Epoch: 13 August)

Event Time Altitude Azimuth Distance (km) Brightness Sun altitude
Rises 09:07:51 0° 4° (N) 2,907 7.7 -17.9°
Reaches altitude 10° 09:10:08 10° 357° (N) 1,985 6.7 -17.5°
Maximum altitude 09:14:13 43° 286° (WNW) 852 4.0 -16.9°
Enters shadow 09:15:38 32° 240° (WSW) 1,046 4.2 -16.7°
